Flag for Canada Weather past 2 weeks in Riverview, New Brunswick, Canada

Now
50 °F

Passing clouds.


Feels Like: 49 °F
Forecast: 49 / 69 °F
Wind: 3 mph from West

Location: Moncton

Current Time: Sep 4, 2015 at 8:24:13 AM

Latest Report: Sep 4, 2015 at 8:00 AM


Visibility: 15 mi

Pressure: 30.14 "Hg

Humidity: 88%

Dew point: 46 °F

Location of RiverviewLocation

Historic Weather in Riverview — Graph

°F

Riverview temperature yesterday

Maximum temperature yesterday: 77 °F (at 12:00 PM)
Minimum temperature yesterday: 54 °F (at 11:00 PM)
Average temperature yesterday: 66 °F

Past Weeks' High & Low Weather Summary

 TemperatureHumidityPressure
High86 °F (Aug 20, 2:00 PM)100% (Aug 20, 7:00 AM)30.20 "Hg (Aug 20, 7:00 AM)
Low46 °F (Sep 4, 6:00 AM)42% (Aug 29, 5:00 PM)29.59 "Hg (Aug 31, 8:00 PM)
Average69 °F82%29.97 "Hg
* Reported Aug 20 7:00 AM — Sep 4 7:00 AM, Riverview, Weather by CustomWeather, © 2015

Note: Actual official high and low records may vary slightly from our data, if they occured in-between our weather recording intervals... More about our weather records

Advertising

Riverview weather history for previous 24 hours

 ConditionsComfort  
Time TempWeatherWind HumidityBarometerVisibility
7:00 AM
Fri, Sep 4
48 °FPassing clouds.3 mph87%30.10 "Hg15 mi
6:00 AM46 °FClear.6 mph93%30.08 "Hg15 mi
5:00 AM50 °FClear.6 mph88%30.06 "Hg15 mi
4:00 AM48 °FClear.6 mph94%30.05 "Hg15 mi
3:00 AM52 °FPassing clouds.5 mph88%30.03 "Hg15 mi
2:00 AM52 °FPassing clouds.2 mph88%30.03 "Hg15 mi
1:00 AM50 °FClear.2 mph94%30.01 "Hg15 mi
12:00 AM50 °FClear.5 mph94%30.00 "Hg15 mi
11:00 PM
Thu, Sep 3
54 °FPassing clouds.3 mph82%29.98 "Hg15 mi
10:00 PM55 °FPassing clouds.3 mph77%29.97 "Hg15 mi
9:00 PM57 °FPassing clouds.5 mph72%29.94 "Hg15 mi
8:00 PM57 °FPassing clouds.7 mph72%29.91 "Hg15 mi
7:00 PM64 °FPassing clouds.12 mph60%29.89 "Hg15 mi
6:00 PM66 °FPassing clouds.14 mph56%29.86 "Hg15 mi
5:00 PM70 °FPassing clouds.12 mph57%29.84 "Hg15 mi
4:00 PM70 °FPassing clouds.16 mph60%29.83 "Hg15 mi
3:00 PM72 °FPassing clouds.13 mph61%29.81 "Hg15 mi
2:00 PM73 °FPassing clouds.15 mph61%29.79 "Hg15 mi
1:00 PM77 °FPassing clouds.7 mph54%29.78 "Hg15 mi
12:00 PM77 °FPassing clouds.13 mph54%29.78 "Hg15 mi
11:00 AM73 °FPassing clouds.6 mph65%29.78 "Hg15 mi
10:00 AM72 °FPartly sunny.9 mph73%29.78 "Hg15 mi
9:00 AM68 °FPartly sunny.7 mph94%29.76 "Hg12 mi
8:00 AM66 °FScattered clouds.9 mph94%29.74 "Hg10 mi
Weather by CustomWeather, © 2015

See weather overviewHow to use our weather pages